This demonstration page uses our WeatherBlox Daily Observations layout. Learn more.

38.88101, -77.10428

Hourly Observations for October 20, 2020

Temp ( °F °C ) Dew Point ( °F °C ) Humidity (%) Winds ( mph kmh ) Pressure ( in mb ) Visibility ( mi km ) Precip ( " mm )
12:52 am 00:52 Partly Cloudy 61 16.1 56 13.3 84 84 SSE 6 9 30.23 1024 10 16.0934 0 0
1:52 am 01:52 Partly Cloudy 59 15 56 13.3 90 90 SW 5 7 30.23 1024 10 16.0934 0 0
2:36 am 02:36 Mostly Cloudy 59 15 56 13.3 90 90 SSW 3 6 30.23 1024 10 16.0934 0 0
2:52 am 02:52 Mostly Cloudy 59 15 56 13.3 90 90 Calm 30.22 1024 10 16.0934 0 0
3:42 am 03:42 Cloudy 60 15.6 56 13.3 86 86 Calm 30.22 1023 10 16.0934 0 0
3:52 am 03:52 Cloudy 60 15.6 56 13.3 86 86 Calm 30.22 1023 10 16.0934 0 0
4:15 am 04:15 Cloudy 59 15 56 13.3 90 90 Calm 30.22 1023 10 16.0934 0 0
4:52 am 04:52 Cloudy 60 15.6 58 14.4 93 93 SSE 6 9 30.21 1023 10 16.0934 0 0
5:20 am 05:20 Cloudy 61 16.1 59 15 93 93 S 5 7 30.21 1023 8 12.87472 0 0
5:24 am 05:24 Cloudy with Drizzle 61 16.1 59 15 93 93 S 6 9 30.21 1023 5 8.0467 0.001 0.001
5:52 am 05:52 Cloudy with Drizzle 60 15.6 58 14.4 93 93 WSW 5 7 30.22 1023 3 4.82802 0.001 0.001
5:54 am 05:54 Cloudy with Drizzle 60 15.6 58 14.4 93 93 WSW 3 6 30.22 1023 2 3.21868 0.001 0.001
6:04 am 06:04 Cloudy with Drizzle 60 15.6 58 14.4 93 93 SW 3 6 30.22 1023 1.75 2.816345 0.001 0.001
6:23 am 06:23 Mostly Cloudy with Drizzle 60 15.6 59 15 96 96 S 7 11 30.22 1023 1.25 2.011675 0.001 0.001
6:35 am 06:35 Mostly Cloudy with Drizzle 60 15.6 59 15 96 96 SSW 8 13 30.22 1023 0.75 1.207005 0.001 0.001
6:46 am 06:46 Mostly Cloudy with Mist and Fog 61 16 59 15 94 94 SW 7 11 30.22 1023 1 1.60934 0.001 0.001
6:52 am 06:52 Mostly Cloudy with Mist and Fog 60 15.6 59 15 96 96 SSW 5 7 30.22 1023 1 1.60934 0.001 0.001
7:19 am 07:19 Cloudy with Mist and Fog 60 15.6 59 15 96 96 SSW 5 7 30.22 1023 1.5 2.41401 0 0
7:52 am 07:52 Cloudy with Mist and Fog 60 15.6 59 15 96 96 SW 5 7 30.23 1024 1.5 2.41401 0 0
8:27 am 08:27 Cloudy with Fog 60 15.6 59 15 96 96 SSE 8 13 30.24 1024 0.5 0.80467 0 0
8:52 am 08:52 Cloudy with Drizzle 60 15.6 59 15 96 96 S 8 13 30.24 1024 0.75 1.207005 0.001 0.001
9:07 am 09:07 Cloudy with Mist and Fog 60 15.6 59 15 96 96 S 9 15 30.24 1024 1.5 2.41401 0.001 0.001
9:31 am 09:31 Cloudy with Mist and Fog 60 15.6 59 15 96 96 S 9 15 30.24 1024 3 4.82802 0.001 0.001
9:52 am 09:52 Cloudy with Mist and Fog 61 16.1 60 15.6 97 97 SSW 5 7 30.24 1024 6 9.65604 0.001 0.001
10:25 am 10:25 Mostly Cloudy 62 16.7 59 15 90 90 SSW 6 9 30.25 1024 10 16.0934 0 0
10:52 am 10:52 Mostly Cloudy 64 17.8 60 15.6 87 87 S 7 11 30.26 1025 10 16.0934 0 0
11:30 am 11:30 Mostly Cloudy 64 17.8 60 15.6 87 87 SSE 7 11 30.26 1025 10 16.0934 0 0
11:52 am 11:52 Mostly Cloudy 66 18.9 60 15.6 81 81 SSE 7 11 30.25 1024 10 16.0934 0 0
12:52 pm 12:52 Mostly Cloudy 68 20 61 16.1 78 78 S 7 11 30.23 1024 10 16.0934 0 0
1:52 pm 13:52 Mostly Cloudy 71 21.7 61 16.1 71 71 S 8 13 30.22 1023 10 16.0934 0 0
2:52 pm 14:52 Mostly Cloudy 74 23.3 61 16.1 64 64 S 7 11 30.2 1023 10 16.0934 0 0
3:52 pm 15:52 Mostly Cloudy 75 23.9 60 15.6 60 60 S 8 13 30.19 1022 10 16.0934 0 0
4:52 pm 16:52 Partly Cloudy 75 23.9 59 15 58 58 S 6 9 30.19 1022 10 16.0934 0 0
5:52 pm 17:52 Mostly Cloudy 72 22.2 59 15 64 64 S 6 9 30.2 1023 10 16.0934 0 0
6:52 pm 18:52 Mostly Cloudy 68 20 60 15.6 76 76 S 5 7 30.21 1023 10 16.0934 0 0
7:52 pm 19:52 Partly Cloudy 67 19.4 60 15.6 79 79 SE 3 6 30.22 1023 10 16.0934 0 0
8:52 pm 20:52 Partly Cloudy 66 18.9 62 16.7 87 87 SSW 5 7 30.24 1024 10 16.0934 0 0
9:52 pm 21:52 Partly Cloudy 64 17.8 62 16.7 93 93 Calm 30.24 1024 10 16.0934 0 0
10:52 pm 22:52 Mostly Clear 64 17.8 62 16.7 93 93 S 3 6 30.24 1024 10 16.0934 0 0
11:52 pm 23:52 Mostly Clear 64 17.8 62 16.7 93 93 Calm 30.24 1024 9 14.48406 0 0

Powered by AerisWeather